TimeEST,TemperatureF,Dew PointF,Humidity,Sea Level PressureIn,VisibilityMPH,Wind Direction,Wind SpeedMPH,Gust SpeedMPH,PrecipitationIn,Events,Conditions,WindDirDegrees,DateUTC
12:53 AM,26.1,19.9,78,29.74,10.0,WNW,10.4,-,N/A,,Overcast,290,2013-02-20 05:53:00
1:53 AM,26.1,19.0,75,29.75,10.0,West,11.5,-,N/A,,Overcast,270,2013-02-20 06:53:00
2:53 AM,25.0,19.0,78,29.76,10.0,West,10.4,21.9,N/A,,Overcast,270,2013-02-20 07:53:00
3:53 AM,25.0,18.0,75,29.76,10.0,West,9.2,19.6,N/A,,Overcast,270,2013-02-20 08:53:00
4:53 AM,24.1,19.0,81,29.77,9.0,West,12.7,-,N/A,,Overcast,260,2013-02-20 09:53:00
5:35 AM,23.0,19.0,85,29.76,5.0,West,10.4,18.4,0.00,Snow,Light Snow,260,2013-02-20 10:35:00
5:42 AM,23.0,19.9,88,29.76,2.5,West,11.5,18.4,0.00,Snow,Light Snow,260,2013-02-20 10:42:00
5:53 AM,23.0,19.9,88,29.78,3.0,West,10.4,-,0.00,Snow,Light Snow,260,2013-02-20 10:53:00
6:42 AM,23.0,18.0,81,29.77,10.0,West,15.0,21.9,0.00,,Mostly Cloudy,260,2013-02-20 11:42:00
9:53 AM,24.1,14.0,65,29.81,10.0,West,17.3,26.5,N/A,,Scattered Clouds,260,2013-02-20 14:53:00
11:53 AM,25.0,12.0,58,29.81,10.0,West,20.7,38.0,N/A,,Overcast,280,2013-02-20 16:53:00
12:53 PM,24.1,12.0,60,29.82,8.0,West,25.3,35.7,0.00,,Overcast,270,2013-02-20 17:53:00
1:53 PM,25.0,12.0,58,29.83,10.0,West,21.9,29.9,0.00,,Overcast,270,2013-02-20 18:53:00
2:22 PM,23.0,12.9,65,29.82,2.5,West,20.7,34.5,0.00,Snow,Light Snow,270,2013-02-20 19:22:00
2:34 PM,24.1,14.0,65,29.83,4.0,West,23.0,34.5,0.00,Snow,Light Snow,270,2013-02-20 19:34:00
2:53 PM,23.0,15.1,72,29.86,2.0,West,20.7,31.1,0.00,Snow,Light Snow,280,2013-02-20 19:53:00
3:08 PM,21.9,17.1,82,29.85,1.0,West,20.7,28.8,0.00,Snow,Light Snow,280,2013-02-20 20:08:00
3:15 PM,21.9,17.1,82,29.85,0.8,West,16.1,25.3,0.00,Snow,Light Snow,270,2013-02-20 20:15:00
3:34 PM,21.9,17.1,82,29.85,1.2,West,17.3,27.6,0.00,Snow,Light Snow,280,2013-02-20 20:34:00
3:53 PM,21.9,17.1,82,29.87,1.8,West,13.8,-,0.00,Snow,Light Snow,280,2013-02-20 20:53:00
4:22 PM,23.0,17.1,78,29.86,2.5,West,18.4,26.5,0.00,Snow,Light Snow,270,2013-02-20 21:22:00
4:34 PM,21.9,17.1,82,29.87,1.5,West,13.8,26.5,0.00,Snow,Light Snow,260,2013-02-20 21:34:00
4:53 PM,21.9,17.1,82,29.89,0.8,West,18.4,28.8,0.00,Snow,Light Snow,270,2013-02-20 21:53:00
5:03 PM,21.9,18.0,85,29.87,1.0,West,13.8,24.2,0.00,Snow,Light Snow,270,2013-02-20 22:03:00
5:42 PM,21.0,18.0,88,29.89,0.8,West,18.4,26.5,0.00,Snow,Light Snow,270,2013-02-20 22:42:00
5:53 PM,21.0,18.0,88,29.92,1.0,West,17.3,27.6,0.00,Snow,Light Snow,270,2013-02-20 22:53:00
6:32 PM,21.0,18.0,88,29.91,2.5,West,12.7,23.0,0.00,Snow,Light Snow,270,2013-02-20 23:32:00
6:40 PM,21.9,18.0,85,29.91,3.0,West,13.8,20.7,0.00,Snow,Light Snow,270,2013-02-20 23:40:00
6:51 PM,21.2,17.6,86,29.91,2.0,West,13.8,-,0.00,Snow,Light Snow,270,2013-02-20 23:51:00
6:53 PM,21.0,18.0,88,29.93,2.0,West,13.8,-,0.00,Snow,Light Snow,260,2013-02-20 23:53:00
7:06 PM,21.0,18.0,88,29.91,1.8,West,15.0,25.3,0.00,Snow,Light Snow,270,2013-02-21 00:06:00
7:36 PM,21.0,17.1,85,29.91,2.5,West,16.1,27.6,0.00,Snow,Light Snow,280,2013-02-21 00:36:00
7:53 PM,21.9,17.1,82,29.93,2.5,West,18.4,-,0.00,Snow,Light Snow,280,2013-02-21 00:53:00
8:53 PM,21.9,16.0,78,29.94,1.5,West,25.3,34.5,0.00,Snow,Light Snow,280,2013-02-21 01:53:00
9:53 PM,21.9,16.0,78,29.95,1.5,West,17.3,31.1,0.00,Snow,Light Snow,270,2013-02-21 02:53:00
10:35 PM,21.0,17.1,85,29.94,0.8,West,20.7,28.8,0.00,Snow,Light Snow,280,2013-02-21 03:35:00
10:53 PM,21.0,18.0,88,29.96,0.8,West,15.0,-,0.00,Snow,Light Snow,280,2013-02-21 03:53:00
11:53 PM,19.9,17.1,89,29.96,0.8,West,18.4,-,0.00,Snow,Light Snow,270,2013-02-21 04:53:00